Content
SEND FEEDBACK

Daily
Averages
Monthly
Summary
United States of America

NEW YORK - UPPER EAST SIDE, NEW YORK


Home > North America > United States > New York
Elevation: 132 feet     Latitude: 40 47N     Longitude: 073 58W

WEATHER
 
SELECT A DAY
Number of Records: 148,039;   Date Range: 11/1/95 - 7/23/14
 
SHARE

PRINT THIS DATA

[ ← Previous Day ]
WEATHER ALMANAC - JANUARY 28, 2013
[ Next Day → ]
[ °C ]   °F
Weather ElementAverageHighLow
Temperature33.1 °F36 °F (11:51 pm)30 °F (1:51 am)
Dewpoint26.4 °F33.1 °F (11:29 pm)10 °F (1:51 am)
Humidity78.4 %92 % (2:51 pm)43 % (1:51 am)
Barometer30.20 in30.48 in (1:51 am)30.01 in (9:51 pm)
Wind Speed5.2 mph10.4 mph (9:23 am)
Wind Gust20.7 mph (3:51 pm)
Weather ElementAverage
Visibility4.9 mi
Wind DirectionE (92.9 °)

Weather ElementTotal
Precipitation0.38 in
Heating Degree Days32 (Base 65)
Averaged from 35 records on January 28, 2013
WEATHER CONDITIONS BREAKOUT
WIND DIRECTION BREAKOUT
WEATHER BY HOUR - JANUARY 28, 2013
[ °C ]   °F
Local TimeTemperatureDewpointHumidityBarometerVisibilityWind DirectionWind SpeedGust SpeedPrecipitationEventsConditions
1:51 AM30.0 °F10.0 °F43 %30.48 in10.0 miCalmClear
2:51 AM30.0 °F10.0 °F43 %30.45 in10.0 miCalmClear
3:51 AM30.9 °F12.9 °F47 %30.44 in10.0 miCalmScattered Clouds
4:51 AM30.9 °F12.9 °F47 %30.42 in10.0 miCalmOvercast
5:51 AM32.0 °F12.0 °F44 %30.41 in10.0 miWSW (250°)6.9 mphOvercast
6:51 AM30.9 °F15.1 °F52 %30.41 in10.0 miVariable5.8 mphOvercast
7:51 AM32.0 °F17.1 °F54 %30.40 in9.0 miWSW (240°)8.1 mphOvercast
8:51 AM33.1 °F19.0 °F56 %30.39 in8.0 miVariable4.6 mphOvercast
9:23 AM30.9 °F23.0 °F72 %30.41 in0.8 miSW (230°)10.4 mph0.00 inSnowLight Snow
9:51 AM30.9 °F26.1 °F82 %30.38 in0.5 miNorth0.01 inSnowSnow
10:51 AM32.0 °F28.0 °F85 %30.33 in2.0 miVariable5.8 mph0.01 inSnowLight Snow
11:51 AM33.1 °F28.0 °F82 %30.29 in4.0 miSSW (210°)6.9 mph0.00 inHaze
12:24 PM32.0 °F28.9 °F88 %30.27 in2.5 miSouth (180°)8.1 mph0.01 inOvercast
12:51 PM33.1 °F28.9 °F85 %30.22 in2.5 miVariable5.8 mph0.03 inRainLight Rain
12:59 PM33.1 °F28.9 °F85 %30.23 in3.0 miVariable6.9 mph18.4 mph0.00 inOvercast
1:51 PM33.1 °F28.9 °F85 %30.17 in3.0 miSouth (180°)4.6 mph0.00 inOvercast
2:09 PM33.1 °F28.9 °F85 %30.18 in2.5 miSouth (190°)4.6 mph0.01 inOvercast
2:51 PM33.1 °F30.9 °F92 %30.13 in1.8 miCalm0.02 inOvercast
3:40 PM34.0 °F30.0 °F85 %30.13 in2.0 miWSW (240°)9.2 mph0.06 inRainLight Rain
3:51 PM34.0 °F30.0 °F85 %30.10 in3.0 miWSW (250°)10.4 mph20.7 mph0.07 inRainLight Rain
4:05 PM34.0 °F30.0 °F85 %30.11 in2.5 miVariable4.6 mph19.6 mph0.02 inRainRain
4:47 PM33.8 °F30.2 °F87 %30.10 in4.0 miWSW (250°)5.8 mph0.05 inOvercast
4:51 PM33.1 °F30.9 °F92 %30.08 in4.0 miWSW (240°)9.2 mph0.05 inOvercast
5:51 PM34.0 °F30.9 °F89 %30.06 in5.0 miWest (260°)5.8 mph0.00 inOvercast
6:51 PM34.0 °F32.0 °F92 %30.06 in4.0 miNorth0.01 inRainLight Rain
7:25 PM34.0 °F32.0 °F92 %30.08 in4.0 miNorth0.01 inRainLight Rain
7:51 PM34.0 °F32.0 °F92 %30.05 in5.0 miWest (270°)5.8 mph0.02 inOvercast
8:11 PM34.0 °F32.0 °F92 %30.06 in4.0 miVariable5.8 mph0.00 inOvercast
8:51 PM34.0 °F32.0 °F92 %30.04 in5.0 miNorth0.00 inOvercast
9:51 PM35.1 °F32.0 °F89 %30.01 in5.0 miWest (260°)9.2 mph16.1 mphOvercast
10:38 PM35.1 °F32.0 °F89 %30.03 in5.0 miVariable3.5 mphOvercast
10:51 PM35.1 °F32.0 °F89 %30.01 in5.0 miNorthOvercast
11:29 PM35.1 °F33.1 °F92 %30.03 in4.0 miCalmOvercast
11:43 PM35.1 °F32.0 °F89 %30.03 in5.0 miCalmOvercast
11:51 PM36.0 °F32.0 °F86 %30.01 in5.0 miVariable6.9 mphOvercast
Hourly data recorded from KNYC, located miles away from New York - Upper East Side, New York







STORIES FROM OUR PARTNERS